When you browse on this site, cookies collect data to enhance your experience and personalize the content and advertising you see.
Visit our Privacy Policy to learn more. By continuing to use the site, you agree to this use of cookies and data.
  • In Czech Republic
  • List of Countries
  • For 7 days
  • Water Temperature
  • Satellite Maps
  • Weather Map
  • Weather Widgets
  • user-avatar
    Login

    Hourly Weather Kalgoorlie

    Today, 17 December, Monday

    Time Temperature Precipitation Wind Pressure Humidity
    00:00 +24°C° 0 mm 8 mps 720 mmHg 54%
    01:00 +22°C° 0 mm 8 mps 720 mmHg 62%
    02:00 +21°C° 0 mm 8 mps 720 mmHg 69%
    03:00 +21°C° 0.2 mm 8 mps 721 mmHg 71%
    04:00 +20°C° 0.2 mm 8 mps 721 mmHg 73%
    05:00 +20°C° 0.2 mm 8 mps 721 mmHg 74%
    06:00 +20°C° 0 mm 8 mps 722 mmHg 72%
    07:00 +21°C° 0 mm 7 mps 722 mmHg 70%
    08:00 +21°C° 0 mm 7 mps 722 mmHg 67%
    09:00 +21°C° 0.1 mm 7 mps 722 mmHg 66%
    10:00 +22°C° 0.1 mm 7 mps 722 mmHg 64%
    11:00 +22°C° 0.1 mm 7 mps 723 mmHg 63%
    12:00 +21°C° 0.3 mm 8 mps 723 mmHg 64%
    13:00 +21°C° 0.3 mm 8 mps 723 mmHg 65%
    14:00 +21°C° 0.3 mm 8 mps 723 mmHg 67%
    15:00 +21°C° 0 mm 8 mps 723 mmHg 66%
    16:00 +21°C° 0 mm 9 mps 724 mmHg 65%
    17:00 +21°C° 0 mm 10 mps 724 mmHg 64%
    18:00 +19°C° 0.1 mm 9 mps 724 mmHg 66%
    19:00 +19°C° 0.1 mm 9 mps 725 mmHg 68%
    20:00 +18°C° 0.1 mm 8 mps 725 mmHg 70%
    21:00 +17°C° 0 mm 8 mps 725 mmHg 71%
    22:00 +17°C° 0 mm 8 mps 726 mmHg 72%
    23:00 +17°C° 0 mm 8 mps 726 mmHg 73%

    Tomorrow, 18 December, Tuesday

    Time Temperature Precipitation Wind Pressure Humidity
    00:00 +16°C° 0 mm 8 mps 726 mmHg 74%
    01:00 +16°C° 0 mm 8 mps 726 mmHg 74%
    02:00 +16°C° 0 mm 7 mps 726 mmHg 75%
    03:00 +16°C° 0 mm 7 mps 726 mmHg 75%
    04:00 +16°C° 0 mm 7 mps 726 mmHg 75%
    05:00 +16°C° 0 mm 7 mps 726 mmHg 76%
    06:00 +16°C° 0 mm 7 mps 727 mmHg 72%
    07:00 +17°C° 0 mm 7 mps 727 mmHg 68%
    08:00 +18°C° 0 mm 8 mps 728 mmHg 65%
    09:00 +21°C° 0 mm 7 mps 728 mmHg 59%
    10:00 +22°C° 0 mm 7 mps 728 mmHg 54%
    11:00 +23°C° 0 mm 7 mps 728 mmHg 49%
    12:00 +24°C° 0 mm 7 mps 728 mmHg 46%
    13:00 +27°C° 0 mm 7 mps 728 mmHg 43%
    14:00 +28°C° 0 mm 7 mps 728 mmHg 39%
    15:00 +27°C° 0 mm 7 mps 728 mmHg 40%
    16:00 +27°C° 0 mm 7 mps 728 mmHg 41%
    17:00 +27°C° 0 mm 7 mps 728 mmHg 41%
    18:00 +24°C° 0 mm 7 mps 728 mmHg 46%
    19:00 +23°C° 0 mm 7 mps 729 mmHg 51%
    20:00 +21°C° 0 mm 7 mps 729 mmHg 55%
    21:00 +20°C° 0 mm 7 mps 730 mmHg 59%
    22:00 +18°C° 0 mm 7 mps 730 mmHg 63%
    23:00 +19°C° 0 mm 6 mps 730 mmHg 67%

    Day after tomorrow, 19 December, Wednesday

    Time Temperature Precipitation Wind Pressure Humidity
    00:00 +17°C° 0 mm 6 mps 730 mmHg 70%
    01:00 +16°C° 0 mm 6 mps 730 mmHg 72%
    02:00 +16°C° 0 mm 5 mps 730 mmHg 74%
    03:00 +16°C° 0 mm 5 mps 730 mmHg 75%
    04:00 +15°C° 0 mm 5 mps 730 mmHg 75%
    05:00 +15°C° 0 mm 5 mps 730 mmHg 75%
    06:00 +17°C° 0 mm 4 mps 731 mmHg 72%
    07:00 +17°C° 0 mm 4 mps 731 mmHg 69%
    08:00 +18°C° 0 mm 4 mps 731 mmHg 66%
    09:00 +20°C° 0 mm 4 mps 731 mmHg 59%
    10:00 +22°C° 0 mm 3 mps 731 mmHg 51%
    11:00 +24°C° 0 mm 3 mps 731 mmHg 44%
    12:00 +26°C° 0 mm 3 mps 731 mmHg 39%
    13:00 +27°C° 0 mm 3 mps 730 mmHg 33%
    14:00 +29°C° 0 mm 3 mps 730 mmHg 28%
    15:00 +29°C° 0 mm 3 mps 730 mmHg 26%
    16:00 +30°C° 0 mm 4 mps 730 mmHg 24%
    17:00 +30°C° 0 mm 4 mps 729 mmHg 22%
    18:00 +30°C° 0 mm 4 mps 730 mmHg 23%
    19:00 +29°C° 0 mm 5 mps 730 mmHg 25%
    20:00 +28°C° 0 mm 5 mps 731 mmHg 26%
    21:00 +26°C° 0 mm 6 mps 731 mmHg 33%
    22:00 +24°C° 0 mm 8 mps 731 mmHg 41%
    23:00 +22°C° 0 mm 9 mps 732 mmHg 48%

    20 December, Thursday

    Time Temperature Precipitation Wind Pressure Humidity
    00:00 +21°C° 0 mm 9 mps 732 mmHg 53%
    01:00 +20°C° 0 mm 8 mps 731 mmHg 58%
    02:00 +18°C° 0 mm 8 mps 731 mmHg 63%
    03:00 +17°C° 0 mm 7 mps 731 mmHg 65%
    04:00 +17°C° 0 mm 7 mps 731 mmHg 67%
    05:00 +16°C° 0 mm 6 mps 731 mmHg 68%
    06:00 +17°C° 0 mm 6 mps 732 mmHg 63%
    07:00 +20°C° 0 mm 6 mps 732 mmHg 58%
    08:00 +21°C° 0 mm 6 mps 732 mmHg 53%
    09:00 +23°C° 0 mm 6 mps 732 mmHg 47%
    10:00 +26°C° 0 mm 5 mps 732 mmHg 41%
    11:00 +28°C° 0 mm 5 mps 732 mmHg 36%
    12:00 +29°C° 0 mm 4 mps 731 mmHg 32%
    13:00 +30°C° 0 mm 3 mps 731 mmHg 29%
    14:00 +31°C° 0 mm 3 mps 730 mmHg 26%
    15:00 +31°C° 0 mm 3 mps 730 mmHg 25%
    16:00 +31°C° 0 mm 3 mps 730 mmHg 23%
    17:00 +31°C° 0 mm 3 mps 730 mmHg 22%
    18:00 +31°C° 0 mm 3 mps 730 mmHg 23%
    19:00 +30°C° 0 mm 3 mps 731 mmHg 23%
    20:00 +30°C° 0 mm 4 mps 731 mmHg 23%
    21:00 +28°C° 0 mm 6 mps 731 mmHg 28%
    22:00 +26°C° 0 mm 8 mps 731 mmHg 32%
    23:00 +24°C° 0 mm 11 mps 731 mmHg 36%

    21 December, Friday

    Time Temperature Precipitation Wind Pressure Humidity
    00:00 +22°C° 0 mm 10 mps 731 mmHg 41%
    01:00 +21°C° 0 mm 9 mps 731 mmHg 47%
    02:00 +20°C° 0 mm 8 mps 731 mmHg 52%
    03:00 +18°C° 0 mm 8 mps 731 mmHg 54%
    04:00 +18°C° 0 mm 7 mps 731 mmHg 57%
    05:00 +17°C° 0 mm 7 mps 731 mmHg 60%
    06:00 +18°C° 0 mm 7 mps 732 mmHg 56%
    07:00 +20°C° 0 mm 7 mps 732 mmHg 52%
    08:00 +21°C° 0 mm 6 mps 733 mmHg 49%
    09:00 +23°C° 0 mm 6 mps 733 mmHg 43%
    10:00 +26°C° 0 mm 6 mps 732 mmHg 37%
    11:00 +28°C° 0 mm 6 mps 732 mmHg 32%
    12:00 +30°C° 0 mm 5 mps 731 mmHg 29%
    13:00 +32°C° 0 mm 5 mps 731 mmHg 27%
    14:00 +33°C° 0 mm 4 mps 731 mmHg 24%
    15:00 +33°C° 0 mm 4 mps 730 mmHg 23%
    16:00 +33°C° 0 mm 4 mps 730 mmHg 23%
    17:00 +33°C° 0 mm 4 mps 730 mmHg 22%
    18:00 +32°C° 0 mm 4 mps 731 mmHg 22%
    19:00 +32°C° 0 mm 4 mps 731 mmHg 23%
    20:00 +30°C° 0 mm 4 mps 731 mmHg 24%
    21:00 +29°C° 0 mm 5 mps 732 mmHg 25%
    22:00 +28°C° 0 mm 6 mps 732 mmHg 26%
    23:00 +27°C° 0 mm 8 mps 732 mmHg 27%

    22 December, Saturday

    Time Temperature Precipitation Wind Pressure Humidity
    00:00 +26°C° 0 mm 8 mps 732 mmHg 31%
    01:00 +24°C° 0 mm 8 mps 732 mmHg 34%
    02:00 +23°C° 0 mm 8 mps 732 mmHg 37%
    03:00 +22°C° 0 mm 7 mps 732 mmHg 41%
    04:00 +22°C° 0 mm 7 mps 732 mmHg 45%
    05:00 +21°C° 0 mm 6 mps 732 mmHg 49%
    06:00 +22°C° 0 mm 6 mps 733 mmHg 44%
    07:00 +24°C° 0 mm 6 mps 733 mmHg 40%
    08:00 +26°C° 0 mm 6 mps 733 mmHg 36%
    09:00 +28°C° 0 mm 6 mps 733 mmHg 31%
    10:00 +30°C° 0 mm 5 mps 732 mmHg 26%
    11:00 +33°C° 0 mm 5 mps 732 mmHg 21%
    12:00 +34°C° 0 mm 5 mps 731 mmHg 20%
    13:00 +35°C° 0 mm 4 mps 731 mmHg 18%
    14:00 +36°C° 0 mm 4 mps 730 mmHg 17%
    15:00 +37°C° 0 mm 4 mps 730 mmHg 17%
    16:00 +37°C° 0 mm 4 mps 730 mmHg 17%
    17:00 +37°C° 0 mm 3 mps 730 mmHg 16%
    18:00 +36°C° 0 mm 4 mps 730 mmHg 17%
    19:00 +35°C° 0 mm 4 mps 731 mmHg 17%
    20:00 +34°C° 0 mm 5 mps 731 mmHg 18%
    21:00 +33°C° 0 mm 6 mps 731 mmHg 18%
    22:00 +32°C° 0 mm 7 mps 731 mmHg 17%
    23:00 +31°C° 0 mm 8 mps 731 mmHg 17%
    Show more